Total_Precipitation_Accumulation
0.32 0.27 0.26 0.28 0.29 0.32 0.41 0.49 0.63 0.70 0.68 0.63 0.68 0.72 0.75 0.77 0.75 0.66 0.61 0.53 0.52 0.51 0.50 0.55 0.56 0.57 0.56 0.54 0.61 0.65 0.65 0.68 0.78 0.85 0.90 0.93 0.99 1.02 0.99 0.97 0.93 0.92 0.89 0.90
0.29 0.25 0.23 0.21 0.21 0.25 0.31 0.38 0.48 0.50 0.51 0.43 0.38 0.34 0.33 0.36 0.42 0.42 0.39 0.36 0.41 0.45 0.48 0.56 0.55 0.53 0.55 0.55 0.52 0.52 0.53 0.57 0.70 0.78 0.80 0.86 0.89 0.92 0.95 0.98 0.96 0.94 0.93 0.96
0.33 0.25 0.29 0.32 0.27 0.26 0.30 0.31 0.38 0.45 0.46 0.41 0.32 0.29 0.27 0.25 0.26 0.27 0.30 0.31 0.35 0.40 0.45 0.52 0.51 0.50 0.51 0.53 0.50 0.50 0.52 0.58 0.67 0.70 0.69 0.72 0.76 0.75 0.75 0.84 0.91 0.91 0.91 0.91
0.46 0.40 0.47 0.36 0.25 0.24 0.24 0.27 0.32 0.37 0.34 0.33 0.28 0.28 0.26 0.23 0.24 0.26 0.27 0.27 0.31 0.34 0.38 0.48 0.50 0.51 0.51 0.50 0.49 0.48 0.50 0.52 0.61 0.63 0.63 0.64 0.69 0.66 0.66 0.73 0.82 0.86 0.96 0.96
0.61 0.50 0.33 0.25 0.24 0.27 0.27 0.28 0.30 0.30 0.27 0.24 0.21 0.24 0.25 0.20 0.19 0.21 0.22 0.23 0.27 0.32 0.39 0.47 0.51 0.57 0.58 0.54 0.54 0.58 0.56 0.52 0.52 0.55 0.58 0.62 0.58 0.57 0.57 0.63 0.68 0.70 0.76 0.85
0.70 0.65 0.44 0.29 0.20 0.22 0.28 0.40 0.33 0.30 0.28 0.25 0.25 0.32 0.30 0.22 0.19 0.18 0.20 0.22 0.26 0.31 0.38 0.45 0.51 0.56 0.60 0.62 0.57 0.58 0.60 0.61 0.60 0.59 0.58 0.60 0.57 0.55 0.55 0.62 0.66 0.69 0.70 0.69
0.66 0.66 0.41 0.22 0.16 0.20 0.42 0.49 0.32 0.30 0.30 0.28 0.28 0.28 0.25 0.19 0.17 0.20 0.22 0.24 0.25 0.30 0.39 0.43 0.50 0.54 0.61 0.64 0.56 0.54 0.61 0.70 0.73 0.65 0.63 0.68 0.69 0.66 0.63 0.63 0.67 0.68 0.69 0.69
0.64 0.72 0.52 0.23 0.23 0.37 0.46 0.34 0.27 0.26 0.26 0.25 0.23 0.20 0.18 0.19 0.20 0.23 0.24 0.26 0.26 0.28 0.35 0.39 0.46 0.51 0.54 0.59 0.59 0.58 0.58 0.63 0.66 0.67 0.65 0.69 0.78 0.79 0.78 0.77 0.76 0.77 0.78 0.76
0.63 0.57 0.37 0.26 0.32 0.34 0.32 0.33 0.28 0.25 0.22 0.21 0.21 0.19 0.17 0.18 0.19 0.23 0.24 0.27 0.29 0.32 0.37 0.40 0.46 0.48 0.51 0.57 0.62 0.58 0.57 0.59 0.62 0.64 0.66 0.67 0.72 0.80 0.86 0.85 0.81 0.82 0.82 0.82
0.58 0.41 0.32 0.31 0.28 0.29 0.28 0.27 0.24 0.23 0.21 0.21 0.21 0.21 0.19 0.18 0.18 0.20 0.22 0.25 0.30 0.37 0.42 0.44 0.50 0.55 0.62 0.63 0.61 0.62 0.62 0.62 0.61 0.61 0.62 0.63 0.67 0.70 0.74 0.79 0.76 0.76 0.77 0.79
0.60 0.44 0.39 0.35 0.31 0.29 0.27 0.23 0.21 0.20 0.18 0.20 0.21 0.21 0.20 0.21 0.19 0.18 0.20 0.22 0.27 0.35 0.44 0.48 0.52 0.58 0.64 0.62 0.61 0.64 0.69 0.67 0.63 0.61 0.61 0.62 0.61 0.62 0.66 0.68 0.76 0.84 0.86 0.90
0.71 0.49 0.49 0.41 0.30 0.27 0.27 0.25 0.22 0.20 0.17 0.16 0.18 0.19 0.20 0.20 0.19 0.17 0.17 0.19 0.24 0.29 0.35 0.41 0.46 0.49 0.54 0.57 0.57 0.63 0.69 0.68 0.64 0.67 0.66 0.65 0.65 0.68 0.75 0.76 0.83 0.82 0.83 0.85
0.61 0.47 0.39 0.32 0.29 0.31 0.31 0.28 0.24 0.21 0.19 0.17 0.17 0.17 0.21 0.20 0.18 0.18 0.19 0.21 0.25 0.27 0.28 0.34 0.39 0.41 0.46 0.52 0.57 0.62 0.67 0.65 0.63 0.65 0.67 0.68 0.71 0.72 0.74 0.73 0.74 0.73 0.70 0.71
0.40 0.42 0.39 0.33 0.34 0.33 0.31 0.28 0.23 0.18 0.17 0.18 0.19 0.19 0.21 0.22 0.22 0.21 0.22 0.23 0.25 0.28 0.27 0.29 0.32 0.37 0.42 0.46 0.51 0.61 0.71 0.77 0.73 0.68 0.70 0.75 0.76 0.74 0.71 0.73 0.76 0.73 0.70 0.69
0.29 0.34 0.37 0.33 0.31 0.28 0.27 0.25 0.22 0.18 0.17 0.18 0.20 0.22 0.26 0.28 0.29 0.27 0.25 0.25 0.26 0.26 0.26 0.26 0.29 0.34 0.38 0.42 0.47 0.53 0.61 0.69 0.72 0.73 0.75 0.75 0.73 0.70 0.67 0.67 0.69 0.73 0.71 0.73
0.27 0.25 0.28 0.33 0.31 0.26 0.26 0.27 0.27 0.24 0.20 0.21 0.24 0.26 0.31 0.32 0.32 0.31 0.30 0.31 0.30 0.29 0.28 0.30 0.31 0.34 0.36 0.41 0.48 0.51 0.55 0.67 0.72 0.71 0.72 0.74 0.72 0.72 0.72 0.70 0.70 0.71 0.68 0.73
0.33 0.32 0.33 0.38 0.35 0.31 0.31 0.33 0.36 0.32 0.27 0.26 0.28 0.29 0.33 0.38 0.39 0.37 0.35 0.35 0.33 0.31 0.30 0.31 0.35 0.38 0.40 0.46 0.55 0.57 0.55 0.59 0.69 0.67 0.66 0.72 0.79 0.79 0.82 0.81 0.77 0.76 0.77 0.84
0.35 0.36 0.38 0.41 0.42 0.45 0.47 0.45 0.44 0.37 0.33 0.32 0.31 0.34 0.37 0.39 0.44 0.43 0.41 0.38 0.36 0.35 0.36 0.35 0.37 0.41 0.42 0.48 0.54 0.60 0.63 0.59 0.59 0.63 0.67 0.69 0.75 0.78 0.81 0.83 0.82 0.82 0.83 0.87
0.27 0.30 0.35 0.38 0.44 0.51 0.51 0.50 0.48 0.40 0.34 0.35 0.37 0.39 0.42 0.41 0.43 0.42 0.40 0.41 0.41 0.42 0.40 0.37 0.45 0.42 0.43 0.51 0.58 0.59 0.64 0.66 0.65 0.65 0.66 0.72 0.74 0.74 0.79 0.82 0.85 0.88 0.88 0.87
0.26 0.29 0.36 0.41 0.43 0.45 0.50 0.51 0.46 0.41 0.35 0.37 0.40 0.40 0.45 0.48 0.43 0.41 0.40 0.40 0.39 0.41 0.40 0.44 0.42 0.40 0.47 0.51 0.58 0.52 0.60 0.66 0.65 0.63 0.65 0.68 0.68 0.72 0.75 0.78 0.80 0.87 0.90 0.91
0.32 0.35 0.38 0.43 0.43 0.43 0.51 0.55 0.50 0.45 0.41 0.41 0.43 0.44 0.44 0.50 0.47 0.47 0.48 0.44 0.39 0.37 0.39 0.50 0.45 0.45 0.54 0.63 0.62 0.54 0.57 0.63 0.65 0.65 0.67 0.68 0.70 0.73 0.75 0.76 0.77 0.80 0.83 0.85
0.39 0.41 0.43 0.46 0.47 0.47 0.51 0.59 0.59 0.52 0.47 0.47 0.45 0.47 0.48 0.50 0.50 0.50 0.49 0.51 0.48 0.53 0.48 0.45 0.46 0.59 0.76 0.75 0.58 0.56 0.58 0.58 0.63 0.66 0.68 0.68 0.71 0.75 0.78 0.79 0.79 0.78 0.81 0.86
0.44 0.46 0.47 0.49 0.53 0.53 0.51 0.56 0.59 0.53 0.51 0.54 0.55 0.56 0.56 0.56 0.59 0.61 0.59 0.55 0.55 0.63 0.58 0.53 0.63 0.80 0.88 0.70 0.61 0.61 0.59 0.59 0.60 0.62 0.63 0.66 0.70 0.75 0.78 0.77 0.79 0.81 0.83 0.85
0.47 0.50 0.50 0.50 0.53 0.54 0.59 0.62 0.61 0.60 0.61 0.62 0.63 0.63 0.65 0.67 0.68 0.67 0.67 0.72 0.76 0.75 0.64 0.66 0.76 0.85 0.84 0.67 0.65 0.63 0.61 0.60 0.62 0.63 0.63 0.65 0.69 0.73 0.74 0.72 0.73 0.75 0.78 0.85
0.54 0.53 0.53 0.55 0.60 0.64 0.70 0.70 0.68 0.68 0.68 0.68 0.67 0.66 0.68 0.75 0.83 0.81 0.76 0.75 0.83 0.82 0.71 0.74 0.82 0.81 0.68 0.65 0.67 0.67 0.68 0.70 0.75 0.76 0.72 0.72 0.72 0.71 0.70 0.71 0.73 0.75 0.76 0.83
0.56 0.59 0.62 0.65 0.68 0.71 0.75 0.76 0.81 0.80 0.79 0.79 0.76 0.74 0.74 0.77 0.82 0.85 0.87 0.85 0.88 0.93 0.85 0.82 0.81 0.79 0.72 0.72 0.74 0.74 0.72 0.77 0.83 0.83 0.81 0.83 0.79 0.78 0.79 0.80 0.79 0.80 0.83 0.89
0.53 0.57 0.58 0.61 0.63 0.66 0.71 0.77 0.87 0.91 0.91 0.94 0.92 0.85 0.86 0.90 0.91 0.89 0.90 0.95 0.99 0.99 0.99 0.96 0.92 0.91 0.90 0.87 0.86 0.86 0.83 0.82 0.82 0.83 0.87 0.90 0.91 0.91 0.90 0.90 0.93 0.94 0.94 0.96